Time,TemperatureF,DewpointF,PressureIn,WindDirection,WindDirectionDegrees,WindSpeedMPH,WindSpeedGustMPH,Humidity,HourlyPrecipIn,Conditions,Clouds,dailyrainin,SoftwareType,DateUTC
2013-11-11 00:22:00,21.0,9.0,30.34,WNW,289,6.0,16.0,60,0.00,,,0.00,,2013-11-11 06:22:00,
2013-11-11 00:42:00,21.0,10.0,30.35,NNE,16,5.0,16.0,63,0.00,,,0.00,,2013-11-11 06:42:00,
2013-11-11 00:52:00,20.0,8.0,30.35,WNW,290,6.0,19.0,60,0.00,,,0.00,,2013-11-11 06:52:00,
2013-11-11 01:12:00,20.0,9.0,30.36,North,350,7.0,17.0,63,0.00,,,0.00,,2013-11-11 07:12:00,
2013-11-11 01:22:00,19.0,9.0,30.36,NW,320,7.0,19.0,63,0.00,,,0.00,,2013-11-11 07:22:00,
2013-11-11 01:42:00,19.0,9.0,30.39,NNW,338,10.0,19.0,63,0.00,,,0.00,,2013-11-11 07:42:00,
2013-11-11 01:52:00,19.0,5.0,30.39,NW,304,4.0,15.0,54,0.00,,,0.00,,2013-11-11 07:52:00,
2013-11-11 02:22:00,19.0,7.0,30.40,NNE,17,3.0,12.0,59,0.00,,,0.00,,2013-11-11 08:22:00,
2013-11-11 02:42:00,18.0,7.0,30.40,NE,41,3.0,13.0,62,0.00,,,0.00,,2013-11-11 08:42:00,
2013-11-11 02:52:00,18.0,7.0,30.41,WNW,299,6.0,16.0,62,0.00,,,0.00,,2013-11-11 08:52:00,
2013-11-11 03:11:00,18.0,5.0,30.42,NNE,24,4.0,13.0,57,0.00,,,0.00,,2013-11-11 09:11:00,
2013-11-11 03:22:00,18.0,3.0,30.42,NE,55,2.0,14.0,52,0.00,,,0.00,,2013-11-11 09:22:00,
2013-11-11 03:43:00,18.0,4.0,30.42,NW,306,3.0,12.0,53,0.00,,,0.00,,2013-11-11 09:43:00,
2013-11-11 03:54:00,17.0,2.0,30.44,North,355,1.0,14.0,52,0.00,,,0.00,,2013-11-11 09:54:00,
2013-11-11 04:23:00,17.0,4.0,30.44,North,9,6.0,18.0,56,0.00,,,0.00,,2013-11-11 10:23:00,
2013-11-11 04:42:00,17.0,4.0,30.45,NNW,328,5.0,20.0,55,0.00,,,0.00,,2013-11-11 10:42:00,
2013-11-11 04:52:00,17.0,3.0,30.45,WSW,258,4.0,14.0,54,0.00,,,0.00,,2013-11-11 10:52:00,
2013-11-11 05:12:00,16.0,5.0,30.47,WSW,245,5.0,21.0,61,0.00,,,0.00,,2013-11-11 11:12:00,
2013-11-11 05:21:00,16.0,5.0,30.47,North,5,6.0,17.0,60,0.00,,,0.00,,2013-11-11 11:21:00,
2013-11-11 05:42:00,16.0,2.0,30.48,NNW,340,5.0,13.0,54,0.00,,,0.00,,2013-11-11 11:42:00,
2013-11-11 05:52:00,16.0,2.0,30.49,NNW,334,3.0,15.0,52,0.00,,,0.00,,2013-11-11 11:52:00,
2013-11-11 06:12:00,15.0,1.0,30.50,NNW,332,1.0,12.0,52,0.00,,,0.00,,2013-11-11 12:12:00,
2013-11-11 06:22:00,15.0,1.0,30.51,NNW,335,8.0,17.0,54,0.00,,,0.00,,2013-11-11 12:22:00,
2013-11-11 06:42:00,15.0,4.0,30.52,North,350,7.0,20.0,61,0.00,,,0.00,,2013-11-11 12:42:00,
2013-11-11 06:52:00,15.0,3.0,30.53,NW,319,8.0,13.0,58,0.00,,,0.00,,2013-11-11 12:52:00,
2013-11-11 07:11:00,14.0,3.0,30.54,NW,311,7.0,16.0,62,0.00,,,0.00,,2013-11-11 13:11:00,
2013-11-11 07:21:00,14.0,1.0,30.54,NNW,331,5.0,13.0,56,0.00,,,0.00,,2013-11-11 13:21:00,
2013-11-11 07:42:00,14.0,3.0,30.55,WSW,255,4.0,15.0,61,0.00,,,0.00,,2013-11-11 13:42:00,
2013-11-11 07:52:00,14.0,2.0,30.57,NNW,333,7.0,15.0,58,0.00,,,0.00,,2013-11-11 13:52:00,
2013-11-11 08:21:00,14.0,1.0,30.59,NNW,332,6.0,13.0,55,0.00,,,0.00,,2013-11-11 14:21:00,
2013-11-11 08:42:00,14.0,0.0,30.60,NW,309,4.0,12.0,54,0.00,,,0.00,,2013-11-11 14:42:00,
2013-11-11 08:52:00,14.0,0.0,30.61,WNW,302,6.0,18.0,53,0.00,,,0.00,,2013-11-11 14:52:00,
2013-11-11 09:11:00,14.0,2.0,30.62,NNW,335,8.0,17.0,57,0.00,,,0.00,,2013-11-11 15:11:00,
2013-11-11 09:21:00,14.0,1.0,30.62,NNW,331,5.0,12.0,55,0.00,,,0.00,,2013-11-11 15:21:00,
2013-11-11 09:43:00,14.0,2.0,30.63,West,280,6.0,14.0,57,0.00,,,0.00,,2013-11-11 15:43:00,
2013-11-11 09:53:00,14.0,2.0,30.63,North,5,5.0,14.0,58,0.00,,,0.00,,2013-11-11 15:53:00,
2013-11-11 10:23:00,14.0,2.0,30.65,WNW,301,6.0,21.0,59,0.00,,,0.00,,2013-11-11 16:23:00,
2013-11-11 10:42:00,14.0,4.0,30.65,West,265,5.0,16.0,63,0.00,,,0.00,,2013-11-11 16:42:00,
2013-11-11 10:53:00,14.0,4.0,30.66,NW,304,5.0,18.0,64,0.00,,,0.00,,2013-11-11 16:53:00,
2013-11-11 11:12:00,15.0,4.0,30.67,North,5,5.0,14.0,62,0.00,,,0.00,,2013-11-11 17:12:00,
2013-11-11 11:22:00,15.0,5.0,30.67,WSW,254,4.0,13.0,64,0.00,,,0.00,,2013-11-11 17:22:00,
2013-11-11 11:42:00,15.0,5.0,30.68,NW,308,5.0,14.0,65,0.00,,,0.00,,2013-11-11 17:42:00,
2013-11-11 11:52:00,15.0,5.0,30.68,North,355,5.0,16.0,65,0.00,,,0.00,,2013-11-11 17:52:00,
2013-11-11 12:13:00,15.0,5.0,30.67,WNW,294,5.0,16.0,64,0.00,,,0.00,,2013-11-11 18:13:00,
2013-11-11 12:23:00,16.0,6.0,30.68,WSW,253,5.0,17.0,65,0.00,,,0.00,,2013-11-11 18:23:00,
2013-11-11 12:42:00,16.0,6.0,30.68,NW,321,7.0,12.0,65,0.00,,,0.00,,2013-11-11 18:42:00,
2013-11-11 12:52:00,16.0,6.0,30.68,NW,304,5.0,20.0,65,0.00,,,0.00,,2013-11-11 18:52:00,
2013-11-11 13:12:00,16.0,6.0,30.68,West,264,5.0,15.0,65,0.00,,,0.00,,2013-11-11 19:12:00,
2013-11-11 13:22:00,16.0,6.0,30.68,NNW,333,4.0,15.0,64,0.00,,,0.00,,2013-11-11 19:22:00,
2013-11-11 13:42:00,16.0,6.0,30.69,NE,35,6.0,15.0,65,0.00,,,0.00,,2013-11-11 19:42:00,
2013-11-11 13:53:00,17.0,7.0,30.69,NNW,329,4.0,14.0,64,0.00,,,0.00,,2013-11-11 19:53:00,
2013-11-11 14:11:00,17.0,7.0,30.70,NNW,329,5.0,12.0,63,0.00,,,0.00,,2013-11-11 20:11:00,
2013-11-11 14:22:00,17.0,7.0,30.70,NNW,331,4.0,11.0,64,0.00,,,0.00,,2013-11-11 20:22:00,
2013-11-11 14:42:00,17.0,7.0,30.71,NNW,329,3.0,16.0,63,0.00,,,0.00,,2013-11-11 20:42:00,
2013-11-11 14:52:00,17.0,6.0,30.71,North,350,6.0,14.0,62,0.00,,,0.00,,2013-11-11 20:52:00,
2013-11-11 15:02:00,17.0,6.0,30.71,North,350,6.0,14.0,62,0.00,,,0.00,,2013-11-11 21:02:00,
2013-11-11 15:12:00,17.0,6.0,30.71,North,350,6.0,14.0,62,0.00,,,0.00,,2013-11-11 21:12:00,
2013-11-11 15:22:00,17.0,6.0,30.71,NW,312,5.0,12.0,62,0.00,,,0.00,,2013-11-11 21:22:00,
2013-11-11 15:43:00,17.0,7.0,30.71,WSW,251,4.0,9.0,63,0.00,,,0.00,,2013-11-11 21:43:00,
2013-11-11 15:55:00,17.0,7.0,30.72,WNW,284,6.0,14.0,63,0.00,,,0.00,,2013-11-11 21:55:00,
2013-11-11 16:24:00,17.0,7.0,30.73,NNW,344,3.0,11.0,64,0.00,,,0.00,,2013-11-11 22:24:00,
2013-11-11 16:43:00,17.0,7.0,30.73,WNW,284,4.0,10.0,63,0.00,,,0.00,,2013-11-11 22:43:00,
2013-11-11 16:53:00,17.0,7.0,30.74,West,266,4.0,11.0,64,0.00,,,0.00,,2013-11-11 22:53:00,
2013-11-11 17:22:00,15.0,6.0,30.75,NW,317,1.0,7.0,66,0.00,,,0.00,,2013-11-11 23:22:00,
2013-11-11 17:42:00,15.0,6.0,30.75,NNW,329,1.0,5.0,66,0.00,,,0.00,,2013-11-11 23:42:00,
2013-11-11 17:53:00,14.0,5.0,30.76,NW,304,0.0,5.0,66,0.00,,,0.00,,2013-11-11 23:53:00,
2013-11-11 18:11:00,14.0,4.0,30.77,NW,306,0.0,3.0,63,0.00,,,0.00,,2013-11-12 00:11:00,
2013-11-11 18:22:00,13.0,1.0,30.77,NNW,336,1.0,4.0,59,0.00,,,0.00,,2013-11-12 00:22:00,
2013-11-11 18:42:00,13.0,0.0,30.78,NW,313,0.0,3.0,55,0.00,,,0.00,,2013-11-12 00:42:00,
2013-11-11 18:52:00,12.0,-2.0,30.79,NW,321,0.0,4.0,53,0.00,,,0.00,,2013-11-12 00:52:00,
2013-11-11 19:11:00,12.0,-2.0,30.80,NW,324,1.0,4.0,53,0.00,,,0.00,,2013-11-12 01:11:00,
2013-11-11 19:22:00,11.0,-2.0,30.81,NW,324,0.0,3.0,55,0.00,,,0.00,,2013-11-12 01:22:00,
2013-11-11 19:42:00,10.0,-2.0,30.81,NW,324,0.0,2.0,58,0.00,,,0.00,,2013-11-12 01:42:00,
2013-11-11 19:52:00,10.0,-1.0,30.81,NW,324,0.0,2.0,60,0.00,,,0.00,,2013-11-12 01:52:00,
2013-11-11 20:22:00,9.0,-2.0,30.82,NW,308,0.0,0.0,61,0.00,,,0.00,,2013-11-12 02:22:00,
2013-11-11 20:42:00,9.0,-1.0,30.82,NW,308,0.0,0.0,63,0.00,,,0.00,,2013-11-12 02:42:00,
2013-11-11 20:52:00,9.0,-1.0,30.82,NW,308,0.0,2.0,63,0.00,,,0.00,,2013-11-12 02:52:00,
2013-11-11 21:11:00,9.0,-1.0,30.83,NW,308,0.0,1.0,64,0.00,,,0.00,,2013-11-12 03:11:00,
2013-11-11 21:21:00,9.0,-1.0,30.83,NW,308,0.0,0.0,64,0.00,,,0.00,,2013-11-12 03:21:00,
2013-11-11 21:45:00,9.0,-1.0,30.84,NW,308,0.0,0.0,64,0.00,,,0.00,,2013-11-12 03:45:00,
2013-11-11 21:54:00,9.0,-1.0,30.84,NW,308,0.0,0.0,64,0.00,,,0.00,,2013-11-12 03:54:00,
2013-11-11 22:14:00,9.0,-1.0,30.84,NW,308,0.0,1.0,63,0.00,,,0.00,,2013-11-12 04:14:00,
2013-11-11 22:24:00,9.0,-1.0,30.85,NW,308,0.0,1.0,62,0.00,,,0.00,,2013-11-12 04:24:00,
2013-11-11 22:33:00,9.0,-1.0,30.85,NW,308,0.0,1.0,62,0.00,,,0.00,,2013-11-12 04:33:00,
2013-11-11 22:44:00,9.0,-1.0,30.85,NW,308,0.0,1.0,62,0.00,,,0.00,,2013-11-12 04:44:00,
2013-11-11 22:53:00,9.0,-1.0,30.86,NW,308,0.0,1.0,62,0.00,,,0.00,,2013-11-12 04:53:00,
2013-11-11 23:23:00,8.0,-2.0,30.87,NW,308,0.0,0.0,64,0.00,,,0.00,,2013-11-12 05:23:00,
2013-11-11 23:53:00,9.0,0.0,30.86,NW,308,0.0,0.0,66,0.00,,,0.00,,2013-11-12 05:53:00,